Location: Unspecified
(0.0000°N, 0.0000°E)
Time: 14:37:26
(UTC+00:00)

STARLINK-35347 - Pass Details

Date: 20 February 2026
Orbit: 474 x 476 km, 53.2° (Epoch: 6 March)

Event Time Altitude Azimuth Distance (km) Brightness Sun altitude
Rises 19:25:14 0° 202° (SSW) 2,522 6.5 -17.6°
Reaches altitude 10° 19:27:30 10° 194° (SSW) 1,641 5.3 -18.1°
Enters shadow 19:30:41 37° 136° (SE) 744 3.0 -18.9°
